Regional Weather Roundup
Issued by NWS Green Bay, WI

Home | Current Version | Previous Version | Text Only | Print | Product List | Glossary On
Versions: 1 2 3 4 5 6 7 8 9 10 11 12 13 14 15 16 17 18 19 20 21 22 23 24 25 26 27 28 29 30 31 32 33 34 35 36 37 38 39 40 41 42 43 44 45 46 47 48 49 50
000
ASUS43 KGRB 220859
RWRGRB

NORTH-CENTRAL AND NORTHEAST WISCONSIN REGIONAL WEATHER ROUNDUP
NATIONAL WEATHER SERVICE GREEN BAY WI
300 AM CST MON DEC 22 2014

WIZ005-009-010>012-018-019-221000-
NORTH CENTRAL WISCONSIN

CITY           SKY/WX    TMP DP  RH WIND       PRES   REMARKS
IRONWOOD       CLOUDY    36  34  93 S8        29.76S
MANITOWISH WTR NOT AVBL
ARBOR VITAE    NOT AVBL
EAGLE RIVER    NOT AVBL
LAND O LAKES   NOT AVBL
RHINELANDER    CLOUDY    32  31  96 S8G20     29.83S FOG
PHILLIPS       NOT AVBL
ANTIGO         NOT AVBL
TOMAHAWK       NOT AVBL
MERRILL        NOT AVBL
$$

WIZ013-073-221000-
NORTHEAST WISCONSIN

CITY           SKY/WX    TMP DP  RH WIND       PRES   REMARKS
IRON MOUNTAIN  CLOUDY    33  30  88 S7        29.89F FOG
MARINETTE      CLOUDY    36  30  80 S9        29.94F
$$

WIZ017-030-035>037-045-221000-
CENTRAL WISCONSIN

CITY           SKY/WX    TMP DP  RH WIND       PRES   REMARKS
MEDFORD        NOT AVBL
WAUSAU         CLOUDY    33  31  92 SE7       29.85S FOG
MOSINEE        NOT AVBL
MARSHFIELD     CLOUDY    34  31  88 S12       29.83F FOG
WISC RAPIDS    CLOUDY    34  29  82 S8        29.88S
STEVENS POINT  NOT AVBL
WAUPACA        NOT AVBL
SHAWANO        NOT AVBL
CLINTONVILLE   NOT AVBL
$$

WIZ038-039-048-051-221000-
FOX VALLEY

CITY           SKY/WX    TMP DP  RH WIND       PRES   REMARKS
NWS GREEN BAY  CLOUDY    35  31  85 S8        29.94F
APPLETON       NOT AVBL
OSHKOSH        CLOUDY    35  29  78 S12       29.93S
FOND DU LAC    CLOUDY    35  29  78 S9        29.94S
$$

WIZ022-050-052-221000-
EAST CENTRAL WISCONSIN

CITY           SKY/WX    TMP DP  RH WIND       PRES   REMARKS
STURGEON BAY   CLOUDY    36  30  80 S14G20    29.97F
MANITOWOC      NOT AVBL
SHEBOYGAN      CLOUDY    35  30  82 S12       29.96F
$$

LMZ563-521-522-541>543-221000-
LAKESHORE

STATION/POSITION TIME  TEMP    WIND        PRES    VSBY  WAVE
                       AIR SEA DIR/SP/G                  HT/PER
                 (UTC) (F)     (DEG/KT/KT) (MB)    (MI)  (FT/S)
SHEBOYGAN LKSHOR 0800   37 36  180/ 19/ 21 1015.7S
KEWAUNEE LKSHORE 0800   36     190/ 14/ 17 1014.1F
ALGOMA MARINA    0800          230/ 19/ 26   N/A
NORTHPORT PIER   0800   36     160/ 13/ 19 1015.2S
SISTER BAY LKSHO 0800          190/ 17/ 21   N/A
CHAMBERS ISLAND  0800   37     170/  5/ 10 1015.2R
MENOMINEE LKSHOR 0800   36     160/  9/ 13 1015.0F
$$



USA.gov is the U.S. government's official web portal to all federal, state and local government web resources and services.